Вернуться в каталог

STARLINK-34333

АктивенСвязьVLEO
NORAD 64264·PAYLOAD·🇺🇸 United States

Запущен Jun 4, 2025 с Vandenberg Space Force Base

Loading…

Ближайшие Пролёты (ближайшие 24 часа)

TLE

СвежийSource: CelesTrak SupGP

Эпоха: Sep 15, 2026, 03:25 UTC

1 64264C 25120J   26258.14284722  .00032970  00000+0  97411-3 0  2588
2 64264  53.1590 310.8659 0001206  93.8962 297.6309 15.34374021    12

Отслеживайте STARLINK-34333 в реальном времени с AllMySat

Download on the App Store